Home > Weather > Winterthur > Past weeks

Flag for Switzerland Weather for the Past 2 Weeks in Winterthur, Switzerland

Now
45 °F

Sprinkles. Partly cloudy.


Feels Like: 39 °F
Forecast: 37 / 44 °F
Wind: 10 mph from Southwest

Location: Zurich-Kloten

Current Time: Feb 13, 2016 at 9:33:13 PM

Latest Report: Feb 13, 2016 at 9:20 PM


Visibility: N/A

Pressure: 29.21 "Hg

Humidity: 76%

Dew point: 37 °F

Location of WinterthurLocation

Historic Weather in Winterthur — Graph

°F

Winterthur Temperature Yesterday

Maximum temperature yesterday: 43 °F (at 12:20 PM)
Minimum temperature yesterday: 32 °F (at 8:20 AM)
Average temperature yesterday: 37 °F

High & Low Weather Summary for the Past Weeks

 TemperatureHumidityPressure
High55 °F (Feb 1, 11:20 AM)100% (Jan 30, 3:50 AM)30.45 "Hg (Jan 30, 3:50 AM)
Low30 °F (Jan 30, 5:50 AM)46% (Feb 11, 2:20 PM)29.18 "Hg (Feb 13, 3:50 PM)
Average41 °F81%29.94 "Hg
* Reported Jan 29 8:20 PM — Feb 13 8:20 PM, Winterthur, Weather by CustomWeather, © 2016

Note: Actual official high and low records may vary slightly from our data, if they occured in-between our weather recording intervals... More about our weather records

Advertising

Winterthur Weather History for the Previous 24 Hours

 ConditionsComfort  
Time TempWeatherWind HumidityBarometerVisibility
8:20 PM
Sat, Feb 13
45 °FSprinkles. Passing clouds.12 mph71%29.21 "HgN/A
7:50 PM43 °FSprinkles. Partly cloudy.10 mph81%29.21 "HgN/A
7:20 PM43 °FSprinkles. Partly cloudy.12 mph81%29.21 "HgN/A
6:50 PM41 °FPartly cloudy.7 mph87%29.21 "HgN/A
6:20 PM41 °FPartly cloudy.8 mph87%29.24 "HgN/A
5:50 PM41 °FScattered showers. Partly cloudy.9 mph87%29.24 "HgN/A
5:20 PM41 °FRain showers. Broken clouds.15 mph87%29.24 "Hg3 mi
4:50 PM43 °FRain showers. Broken clouds.8 mph81%29.21 "Hg4 mi
4:20 PM45 °FSprinkles. Broken clouds.8 mph71%29.21 "HgN/A
3:50 PM46 °FScattered showers. Scattered clouds.2 mph66%29.18 "HgN/A
3:20 PM46 °FScattered showers. Scattered clouds.3 mph66%29.21 "HgN/A
2:50 PM46 °FScattered clouds.3 mph66%29.21 "HgN/A
2:20 PM45 °FScattered clouds.7 mph71%29.24 "HgN/A
1:50 PM45 °FPartly sunny.9 mph76%29.24 "HgN/A
1:20 PM43 °FLight rain. Partly sunny.8 mph81%29.27 "HgN/A
12:50 PM45 °FLight rain. Broken clouds.8 mph71%29.27 "HgN/A
12:20 PM43 °FLight rain. Overcast.7 mph76%29.30 "HgN/A
11:50 AM43 °FPartly sunny.12 mph76%29.33 "HgN/A
11:20 AM43 °FBroken clouds.8 mph76%29.33 "HgN/A
10:50 AM43 °FPartly sunny.8 mph81%29.33 "HgN/A
10:20 AM43 °FPartly sunny.10 mph76%29.33 "HgN/A
9:50 AM43 °FPartly sunny.8 mph76%29.36 "HgN/A
9:20 AM39 °FScattered clouds.7 mph87%29.36 "HgN/A
8:50 AM39 °FBroken clouds.8 mph87%29.36 "HgN/A
8:20 AM39 °FBroken clouds.10 mph87%29.36 "HgN/A
7:50 AM39 °FBroken clouds.9 mph87%29.39 "HgN/A
7:20 AM39 °FLight rain. Mostly cloudy.14 mph87%29.39 "HgN/A
6:50 AM39 °FLight rain. Passing clouds.12 mph87%29.39 "HgN/A
6:20 AM39 °FLight rain. Partly cloudy.12 mph87%29.39 "Hg6 mi
5:50 AM39 °FLight rain. Partly cloudy.12 mph87%29.39 "Hg6 mi
5:20 AM39 °FLight rain. Partly cloudy.15 mph87%29.39 "HgN/A
4:50 AM39 °FRain. Partly cloudy.15 mph87%29.39 "HgN/A
4:20 AM39 °FPartly cloudy.9 mph87%29.36 "HgN/A
3:20 AM36 °FLight rain. Partly cloudy.6 mph93%29.36 "Hg5 mi
2:20 AM36 °FLight rain. Partly cloudy.6 mph93%29.36 "Hg6 mi
1:50 AM36 °FRain. Passing clouds.7 mph93%29.36 "Hg4 mi
1:20 AM36 °FLight rain. Passing clouds.7 mph93%29.36 "Hg5 mi
12:50 AM36 °FRain. Partly cloudy.3 mph93%29.36 "Hg3 mi
12:20 AM36 °FRain. Passing clouds.3 mph93%29.36 "Hg2 mi
11:50 PM
Fri, Feb 12
36 °FLight rain. Partly cloudy.2 mph93%29.33 "Hg5 mi
11:20 PM37 °FLight rain. Partly cloudy.3 mph87%29.36 "HgN/A
10:20 PM37 °FSprinkles. Partly cloudy.5 mph87%29.33 "Hg4 mi
9:50 PM36 °FPartly cloudy.5 mph93%29.36 "Hg4 mi
9:20 PM34 °FPartly cloudy.1 mph100%29.36 "Hg3 mi
Weather by CustomWeather, © 2016

See weather overviewHow to use our weather pages